This is the latest recevied weather packets stored in our database for station/object K7NDG. If no packets are shown the sender has not sent any weather packets the latest 10 day(s).
| Time | Temp. | Humidity | Pressure | Rain* | Wind** | Luminosity | Snow |
|---|---|---|---|---|---|---|---|
| 1777670664 | 19.44° C | 64% | 1017.5 hPa | 0 mm | - | 632 W/m² | - |
| 1777670361 | 19.44° C | 66% | 1017.3 hPa | 0 mm | - | 637 W/m² | - |
| 1777670059 | 19.44° C | 65% | 1017.5 hPa | 0 mm | - | 437 W/m² | - |
| 1777669756 | 19.44° C | 65% | 1017.7 hPa | 0 mm | - | 630 W/m² | - |
| 1777669452 | 20° C | 66% | 1017.7 hPa | 0 mm | - | 617 W/m² | - |
| 1777669149 | 20° C | 65% | 1017.7 hPa | 0 mm | - | 618 W/m² | - |
| 1777668846 | 19.44° C | 66% | 1017.6 hPa | 0 mm | - | 598 W/m² | - |
| 1777668543 | 19.44° C | 65% | 1017.5 hPa | 0 mm | - | 395 W/m² | - |
| 1777668239 | 20° C | 65% | 1017.6 hPa | 0 mm | - | 267 W/m² | - |
| 1777667935 | 19.44° C | 66% | 1017.7 hPa | 0 mm | - | 433 W/m² | - |
| 1777667632 | 19.44° C | 66% | 1017.6 hPa | 0 mm | - | 343 W/m² | - |
| 1777667329 | 19.44° C | 65% | 1017.7 hPa | 0 mm | - | 302 W/m² | - |
| 1777667026 | 19.44° C | 66% | 1017.7 hPa | 0 mm | - | 502 W/m² | - |
| 1777666723 | 20° C | 62% | 1017.6 hPa | 0 mm | - | 541 W/m² | - |
| 1777666420 | 20° C | 64% | 1017.7 hPa | 0 mm | - | 557 W/m² | - |
| 1777666117 | 20° C | 64% | 1017.8 hPa | 0 mm | - | 552 W/m² | - |
| 1777665814 | 19.44° C | 66% | 1017.8 hPa | 0 mm | - | 504 W/m² | - |
| 1777665512 | 18.89° C | 64% | 1017.9 hPa | 0 mm | - | 596 W/m² | - |
| 1777665207 | 18.89° C | 64% | 1017.7 hPa | 0 mm | - | 636 W/m² | - |
| 1777664903 | 18.89° C | 64% | 1017.8 hPa | 0 mm | - | 617 W/m² | - |
| 1777664600 | 18.33° C | 67% | 1017.6 hPa | 0 mm | - | 643 W/m² | - |
| 1777664296 | 18.33° C | 65% | 1017.9 hPa | 0 mm | - | 394 W/m² | - |
| 1777663995 | 18.33° C | 68% | 1018 hPa | 0 mm | - | 584 W/m² | - |
| 1777663692 | 18.33° C | 68% | 1017.9 hPa | 0 mm | - | 581 W/m² | - |
| 1777663389 | 18.33° C | 67% | 1018 hPa | 0 mm | - | 544 W/m² | - |
* Rain latest hour (hover to see other rain measurements)
** Current wind speed in m/s (hover to see current wind gust speed)